User: anonymous   Login
Location: McDonald Observatory
(30.6717°N, 104.0221°W)
Time: 13:47:23
(UTC-05:00)
Language:

Cosmos 1484 Rocket - Orbit

View from above orbital plane
View from above orbital plane
View from above satellite
View from above satellite

Ground track
Ground track

The orbit data is extracted from the following two-line orbital elements,

1 14208U 83075B   17206.26190052 +.00000189 +00000-0 +15118-4 0  9997
2 14208 097.3403 215.2657 0039425 002.3957 357.7455 15.10418088852951
Epoch (UTC): 25 July 2017 06:17:08
Eccentricity: 0.0039425
inclination: 97.3403°
perigee height: 507 km
apogee height: 562 km
right ascension of ascending node: 215.2657°
argument of perigee: 2.3957°
revolutions per day: 15.10418088
mean anomaly at epoch: 357.7455°
orbit number at epoch: 85295

The dashed part of the orbit path shows where the satellite is in the earth's shadow,  

DLR